Total_Precipitation_Accumulation
2.37 2.61 2.54 2.34 2.46 2.59 2.87 3.11 3.30 3.04 2.81 2.56 2.18 1.94 1.97 2.16 2.40 2.14 2.13 2.09 1.85 1.79 1.69 1.58 1.49 1.54 1.72 1.97 2.17 2.36 2.64 2.88 3.10 3.30 3.46 3.66 3.93 4.30
2.44 2.63 2.55 2.41 2.51 2.59 2.80 3.10 3.46 3.48 2.97 2.39 2.20 2.05 2.20 2.19 2.39 2.11 2.03 2.10 1.88 1.71 1.58 1.53 1.48 1.47 1.52 1.69 1.92 2.12 2.25 2.39 2.59 2.77 2.94 3.08 3.20 3.47
2.29 2.44 2.48 2.60 2.68 2.68 2.81 2.97 3.28 3.56 3.18 2.55 2.42 2.40 2.53 2.47 2.34 2.10 1.88 1.81 1.65 1.64 1.49 1.41 1.38 1.42 1.48 1.55 1.71 1.92 2.00 2.10 2.31 2.48 2.67 2.84 2.88 3.01
2.29 2.44 2.32 2.54 2.73 2.68 2.79 2.79 2.94 3.32 3.19 2.87 2.79 2.72 2.71 2.57 2.53 2.34 2.00 1.80 1.73 1.76 1.53 1.42 1.39 1.37 1.41 1.43 1.55 1.74 1.89 1.98 2.07 2.14 2.21 2.35 2.54 2.72
2.29 2.30 2.27 2.49 2.50 2.62 2.73 2.70 2.71 2.88 3.11 3.00 2.89 2.99 2.92 2.78 2.74 2.52 2.30 2.25 1.89 1.80 1.72 1.63 1.62 1.60 1.57 1.56 1.57 1.65 1.77 1.91 2.04 2.16 2.25 2.32 2.39 2.48
2.31 2.26 2.20 2.24 2.32 2.45 2.54 2.65 2.73 2.87 3.03 3.05 3.06 3.16 3.12 3.14 3.19 2.93 2.73 2.63 2.28 1.87 1.91 1.80 1.75 1.66 1.55 1.49 1.50 1.58 1.70 1.90 2.07 2.15 2.23 2.32 2.39 2.40
2.31 2.22 2.07 2.09 2.19 2.27 2.18 2.34 2.52 2.67 2.72 2.82 2.90 3.13 3.16 3.24 3.22 3.10 2.94 2.93 2.73 2.23 2.07 1.94 1.88 1.77 1.73 1.70 1.61 1.59 1.62 1.72 1.93 2.08 2.14 2.24 2.34 2.37
2.35 2.30 2.15 2.04 2.01 1.96 1.87 1.91 2.05 2.21 2.39 2.65 2.74 2.94 3.11 3.27 3.49 3.53 3.37 3.18 2.97 2.67 2.59 2.41 2.14 2.04 1.87 1.71 1.71 1.56 1.42 1.44 1.52 1.67 1.83 2.00 2.19 2.38
2.26 2.25 1.97 1.81 1.93 1.83 1.86 1.86 1.86 2.01 2.15 2.42 2.58 2.65 2.89 3.12 3.43 3.52 3.54 3.47 3.25 3.05 2.94 2.76 2.42 2.18 1.94 1.82 1.79 1.53 1.36 1.28 1.28 1.32 1.41 1.58 1.74 1.96
2.08 2.13 2.08 2.01 2.02 2.10 2.02 1.86 1.75 1.86 2.01 1.97 1.97 2.14 2.41 2.83 3.07 3.12 3.31 3.36 3.22 3.01 2.95 2.86 2.54 2.30 2.05 1.94 1.90 1.61 1.43 1.39 1.36 1.27 1.23 1.30 1.46 1.60
1.97 1.98 1.99 1.93 2.07 1.99 1.89 1.84 1.81 1.85 1.82 1.80 1.74 1.78 1.93 2.20 2.60 2.79 2.89 2.87 2.71 2.45 2.37 2.40 2.28 2.26 2.18 2.04 1.87 1.77 1.55 1.40 1.32 1.33 1.30 1.27 1.35 1.48
2.00 1.96 1.90 1.80 1.83 1.79 1.74 1.84 1.82 1.83 1.89 1.82 1.68 1.59 1.55 1.75 2.15 2.33 2.44 2.51 2.36 2.25 1.97 1.98 1.95 2.06 2.11 1.89 1.74 1.72 1.67 1.64 1.52 1.39 1.33 1.32 1.45 1.42
1.96 1.94 1.86 1.86 1.66 1.61 1.60 1.60 1.64 1.68 1.79 1.82 1.75 1.68 1.69 1.71 1.83 2.04 2.25 2.38 2.34 2.09 1.95 2.00 1.96 2.01 2.02 1.88 1.75 1.68 1.71 1.78 1.75 1.69 1.64 1.64 1.70 1.64
1.89 1.84 1.85 1.80 1.61 1.56 1.50 1.47 1.52 1.47 1.45 1.57 1.59 1.54 1.55 1.57 1.66 1.86 2.08 2.22 2.29 2.10 2.03 2.13 2.11 2.07 2.05 1.85 1.66 1.55 1.58 1.72 1.87 1.97 1.96 2.04 2.03 2.09
1.78 1.84 1.79 1.68 1.47 1.31 1.32 1.33 1.26 1.21 1.32 1.44 1.45 1.36 1.34 1.39 1.51 1.68 1.84 2.03 2.05 1.94 1.86 1.99 2.10 2.11 2.09 1.89 1.66 1.55 1.55 1.56 1.66 1.88 2.11 2.24 2.21 2.24
1.83 1.81 1.68 1.57 1.38 1.25 1.29 1.24 1.17 1.23 1.35 1.38 1.40 1.37 1.34 1.37 1.40 1.49 1.65 1.81 1.89 1.78 1.76 1.83 2.02 2.22 2.15 1.96 1.89 1.71 1.66 1.63 1.56 1.73 2.05 2.32 2.51 2.57
2.06 1.90 1.73 1.61 1.47 1.37 1.37 1.42 1.46 1.50 1.45 1.43 1.50 1.55 1.52 1.42 1.38 1.46 1.68 1.77 1.77 1.71 1.75 1.81 1.92 2.14 2.18 2.07 2.02 1.84 1.81 1.72 1.64 1.76 1.99 2.13 2.30 2.51
1.91 1.75 1.73 1.69 1.60 1.58 1.60 1.60 1.60 1.60 1.57 1.60 1.62 1.64 1.62 1.52 1.46 1.49 1.63 1.73 1.73 1.69 1.70 1.77 2.01 2.26 2.29 2.05 1.72 1.67 1.70 1.68 1.69 1.90 2.05 2.03 2.04 2.13
1.85 1.81 1.79 1.76 1.67 1.64 1.68 1.68 1.62 1.61 1.66 1.67 1.67 1.68 1.76 1.80 1.79 1.76 1.76 1.87 1.88 1.84 1.76 1.82 2.01 2.21 2.19 1.90 1.60 1.45 1.60 1.75 1.90 2.02 2.12 2.07 1.95 1.96
1.71 1.74 1.73 1.74 1.76 1.76 1.76 1.75 1.72 1.73 1.72 1.73 1.79 1.84 1.94 2.02 2.09 2.04 1.98 1.96 1.99 2.03 2.03 1.98 1.98 2.04 2.14 2.07 1.90 1.77 1.71 1.85 2.03 2.10 2.07 2.06 2.00 2.01
1.66 1.65 1.63 1.63 1.67 1.71 1.70 1.71 1.71 1.76 1.79 1.86 1.89 1.93 2.00 2.03 2.01 1.98 1.98 2.06 2.09 2.17 2.11 1.89 1.84 2.02 2.22 2.43 2.21 1.86 1.77 1.81 1.89 1.96 2.02 2.11 2.11 2.10
1.62 1.57 1.57 1.58 1.63 1.69 1.74 1.75 1.76 1.80 1.88 1.98 1.98 1.99 2.03 2.03 1.97 1.98 2.07 2.13 2.09 2.08 2.08 2.03 2.14 2.27 2.35 2.36 2.11 1.90 1.90 1.95 1.98 2.01 2.01 1.95 1.90 1.86
1.62 1.59 1.56 1.51 1.51 1.56 1.60 1.65 1.71 1.80 1.85 1.92 1.98 2.03 2.07 2.05 2.01 2.06 2.14 2.23 2.28 2.29 2.38 2.41 2.39 2.37 2.25 2.18 2.13 2.01 1.96 2.10 2.19 2.17 2.06 1.88 1.58 1.35